Location: Neue Silberwiese
(53.4167°N, 14.5500°E)
Time: 07:24:14
(UTC+00:00)

Daily predictions for brighter satellites

Satellite Brightness Start Highest point End
(mag) Time Altitude Azimuth Time Altitude Azimuth Time Altitude Azimuth
Cosmos 2219 Rocket 2.7 20:19:45 10° S 20:25:02 42° ESE 20:30:21 10° NE
Meteor 2-5 Rocket 4.2 20:20:21 10° SSE 20:25:34 44° E 20:30:53 10° NNE
Cosmos 2333 Rocket 2.5 20:20:51 10° S 20:26:21 48° ESE 20:31:49 10° NE
FALCON 9 DEB 4.1 20:25:25 10° SSW 20:27:55 22° SSE 20:30:26 10° E
ERS-1 Rocket 3.1 20:25:07 10° SSE 20:30:11 89° WSW 20:35:16 10° NNW
Geosat 4.2 20:25:19 10° SSE 20:30:20 73° WSW 20:35:23 10° NW
Cosmos 1025 Rocket 3.1 20:26:34 10° S 20:30:57 87° E 20:35:20 10° NNE
Lacrosse 5 rocket 1.1 20:28:05 10° SW 20:31:39 52° SE 20:35:09 10° ENE
Cosmos 2228 3.8 20:28:39 10° N 20:32:50 40° ENE 20:36:59 10° SE
Cosmos 1725 Rocket 4.1 20:27:02 10° N 20:33:15 87° ENE 20:39:28 10° S
Cosmos 1536 Rocket 3.8 20:29:34 10° S 20:33:55 54° E 20:38:16 10° NNE
Spot 2 Rocket 4.0 20:30:03 10° S 20:35:03 60° WSW 20:40:07 10° NNW
Cosmos 1331 Rocket 4.1 20:33:22 10° SSW 20:38:38 87° WNW 20:43:59 10° NNE
DNEPR-1 R/B 4.4 20:35:09 10° NW 20:39:07 40° SW 20:43:13 10° SSE
FALCON 9 DEB 3.5 20:40:36 10° SW 20:43:25 32° SSE 20:46:15 10° E
CENTAUR R/B 3.8 20:39:17 10° WSW 20:45:36 52° NNW 20:53:10 10° NE
CARTOSAT-1 4.4 20:41:37 10° S 20:45:47 47° W 20:49:59 10° NNW
Cosmos 2237 Rocket 3.5 20:42:20 10° SSE 20:46:27 21° ESE 20:50:34 10° NE
Terra 1.9 20:41:45 10° SSE 20:46:32 88° WSW 20:51:20 10° NNW
SL-14 R/B 3.3 20:43:07 10° S 20:47:10 86° E 20:51:12 10° NNE
Cosmos 1674 4.3 20:45:55 10° SW 20:49:20 35° WNW 20:52:47 10° N
Cosmos 2360 Rocket 2.6 20:43:43 10° SW 20:49:21 68° NW 20:55:00 10° NNE
Cosmos 1953 4.3 20:46:34 10° NNW 20:49:57 26° W 20:53:19 10° SW
Cosmos 2369 Rocket 4.4 20:46:08 10° NNW 20:50:22 20° NNE 20:54:34 10° ENE
FALCON 9 DEB 3.6 20:48:35 10° SW 20:51:23 31° SSE 20:54:12 10° E
Cosmos 1455 3.4 20:48:17 10° N 20:51:42 30° ENE 20:55:05 10° SE
Cosmos 1503 Rocket 4.4 20:46:58 10° NNW 20:52:20 60° ENE 20:57:38 10° SE
Cosmos 2322 Rocket 3.5 20:48:13 10° WSW 20:53:41 45° NW 20:59:11 10° NNE
SL-16 R/B 3.9 20:48:35 10° WSW 20:53:52 38° NW 20:59:11 10° NNE
FALCON 9 DEB 3.4 20:51:03 10° SW 20:53:57 36° SSE 20:56:50 10° E
SPOT 5 3.4 20:49:08 10° S 20:54:07 59° WSW 20:58:52 10° NNW
H-2A R/B 3.8 20:51:43 10° NNE 20:55:42 48° E 20:59:40 10° S
Meteor 1-24 Rocket 3.8 20:52:14 10° S 20:57:32 61° E 21:03:01 10° NNE
Cosmos 1302 Rocket 4.0 20:54:42 10° SSW 20:59:58 78° ESE 21:05:13 10° NNE
Cosmos 1300 3.4 20:58:30 10° NNW 21:02:13 51° W 21:05:55 10° S
GEOS 3 Rocket 4.0 20:58:01 10° ESE 21:03:20 65° NE 21:08:37 10° NW
Resurs 01 Rocket 4.3 21:05:29 10° WSW 21:07:28 13° W 21:09:28 10° WNW
USA 267 3.5 21:04:08 10° E 21:10:40 78° NNE 21:17:14 10° WNW
Cosmos 1340 3.5 21:09:31 10° SSW 21:13:11 50° WNW 21:16:53 10° N
Cosmos 2278 Rocket 2.3 21:10:05 10° NNW 21:15:47 79° WSW 21:20:55 13° SSE
Cosmos 2322 3.8 21:11:17 10° SW 21:16:57 82° WNW 21:22:40 10° NNE
COSMOS 2428 2.7 21:12:53 10° SSW 21:18:38 78° ESE 21:24:24 10° NE
Cosmos 389 Rocket 2.5 21:17:59 10° NNW 21:21:24 70° W 21:24:17 14° S
Cosmos 1726 Rocket 3.6 21:18:36 10° N 21:23:06 77° ENE 21:26:53 14° SSE
Cosmos 2058 Rocket 3.5 21:19:08 10° N 21:23:30 51° ENE 21:27:08 14° SSE
Cosmos 1867 4.3 21:19:11 10° NW 21:24:22 43° WSW 21:28:54 13° S
NOSS 0 Rocket 4.2 21:18:47 10° S 21:24:44 50° ESE 21:30:44 10° NE
Cosmos 968 Rocket 4.4 21:24:06 10° NW 21:28:50 39° WSW 21:33:29 10° S
CZ-3B R/B 4.3 21:05:53 10° WSW 21:35:57 80° SSE 21:41:40 10° ENE
SJ 16-02 2.7 21:32:15 10° N 21:36:12 31° NE 21:40:07 10° ESE
Cosmos 1777 Rocket 4.4 21:32:44 10° NNW 21:38:00 62° ENE 21:42:43 13° SE
Meteor 2-10 Rocket 4.0 21:33:05 10° NNW 21:38:02 52° W 21:42:36 11° S
Cosmos 1606 Rocket 3.9 21:34:17 10° NNW 21:38:44 63° W 21:42:32 14° S
FALCON 9 DEB 3.0 21:35:34 10° W 21:39:00 84° S 21:42:25 10° E
Cosmos 1943 Rocket 3.0 21:36:11 10° NNW 21:41:30 45° NE 21:46:47 10° ESE
Uosat 12 SS-18 rocket 4.3 21:38:44 10° SW 21:43:15 85° SE 21:48:38 10° NE
Cosmos 1992 Rocket 4.0 21:38:36 10° SSW 21:43:49 79° ESE 21:49:05 10° NNE
Spot 4 3.9 21:41:10 15° SSE 21:45:06 77° ENE 21:49:54 10° NNW
Cosmos 1892 Rocket 3.6 21:43:59 15° S 21:47:37 68° E 21:52:04 10° NNE
Meteor 1-4 Rocket 3.4 21:46:45 10° N 21:50:03 38° ENE 21:52:29 16° SE
Cosmos 1354 Rocket 4.3 21:45:28 10° NNW 21:50:46 64° WSW 21:55:00 16° S
Cosmos 1346 Rocket 3.2 21:47:11 10° SSW 21:51:10 63° WNW 21:55:12 10° N
Cosmos 1513 Rocket 4.5 21:45:08 10° N 21:51:15 90° E 21:56:24 15° S
Cosmos 1980 3.7 21:51:19 10° SSW 21:56:57 66° ESE 22:02:36 10° NE
Cosmos 1441 Rocket 3.7 21:54:42 18° SSE 21:57:12 45° E 22:00:51 10° NNE
BREEZE-M DEB (TANK) 3.7 21:50:16 10° SW 21:57:29 30° SSE 22:00:26 10° ESE
ATLAS 3B R/B 3.0 21:52:55 10° WSW 21:59:31 70° NW 22:06:24 10° NE
Lacrosse 4 Rocket 4.2 21:57:55 10° NNW 22:00:30 16° NNE 22:03:02 10° ENE
ALOS 2 2.8 21:57:54 16° SSE 22:01:16 64° ENE 22:05:38 10° N
SL-4 R/B 2.5 21:57:47 10° SW 22:01:28 34° SSE 22:04:54 10° E
FALCON 9 DEB 2.8 22:00:10 10° WSW 22:03:17 66° SSE 22:06:25 10° E
Cosmos 724 4.4 21:59:49 10° NW 22:06:04 82° SW 22:11:23 14° SE
OPS 6432 4.3 22:03:18 10° NW 22:06:13 70° NE 22:09:00 13° SE
Cosmos 2219 Rocket 3.2 22:03:31 10° WSW 22:08:59 47° NW 22:14:30 10° NNE
Cosmos 2333 Rocket 3.5 22:05:17 10° WSW 22:10:44 43° NW 22:16:12 10° NNE
Lacrosse 5 rocket 1.8 22:07:12 10° W 22:10:45 54° NNW 22:14:17 10° ENE
Cosmos 1703 3.3 22:08:43 19° S 22:11:25 67° E 22:15:23 10° NNE
Cosmos 1626 Rocket 4.1 22:12:19 18° SSE 22:15:18 48° E 22:19:35 10° NNE
Iridium 2 4.3 22:12:19 14° SSW 22:15:26 49° W 22:19:06 10° N
USA 215 3.5 22:11:20 10° ENE 22:17:36 46° SE 22:23:50 10° SSW
Meteor 2-1 Rocket 4.4 22:12:26 10° NNW 22:17:54 65° W 22:22:14 17° S
FALCON 9 DEB 2.7 22:15:42 10° W 22:18:49 79° S 22:21:55 10° E
Cosmos 2346 Rocket 4.5 22:16:24 16° S 22:21:29 83° E 22:27:44 10° NNE
Cosmos 1602 Rocket 4.3 22:20:35 18° SSE 22:23:31 43° E 22:27:46 10° NNE
Terra 4.1 22:22:20 10° WSW 22:25:00 15° W 22:27:40 10° NW
COBE Rocket 4.1 22:22:10 18° S 22:25:54 67° W 22:30:48 10° NNW
FALCON 9 DEB 2.7 22:23:44 10° WSW 22:26:52 78° S 22:29:59 10° E
Cosmos 1455 3.6 22:23:55 10° NNW 22:27:15 29° W 22:29:59 13° SW
SL-16 R/B 2.8 22:23:55 18° S 22:27:48 43° ESE 22:33:08 10° NE
Cosmos 1464 Rocket 4.4 22:23:01 10° NNW 22:29:14 58° W 22:34:26 15° SSW
FALCON 9 DEB 2.7 22:26:16 10° W 22:29:24 82° S 22:32:30 10° E
Cosmos 2237 Rocket 2.3 22:24:14 10° SSW 22:29:52 83° WNW 22:35:32 10° NNE
Cosmos-2242 3.8 22:25:58 10° N 22:30:13 44° ENE 22:33:34 15° SE
Cosmos 1184 Rocket 3.5 22:29:49 15° SW 22:32:15 47° WNW 22:35:25 10° N
Cosmos 1328 3.7 22:31:00 21° S 22:33:30 73° E 22:37:25 10° NNE
Cosmos 2369 Rocket 2.7 22:29:57 10° NNW 22:35:38 58° NE 22:41:17 10° SE
CENTAUR R/B 4.5 22:31:18 10° WNW 22:37:51 39° N 22:45:29 10° ENE
Cosmos 1634 Rocket 4.2 22:32:04 10° N 22:38:24 68° ENE 22:43:33 16° SSE
Cosmos 192 4.5 22:33:47 11° SSW 22:38:26 76° WNW 22:43:24 10° NNE
GEOS 3 Rocket 4.4 22:38:08 18° S 22:41:37 38° WSW 22:46:35 10° NW
ATLAS CENTAUR R/B 3.8 22:40:45 11° SSW 22:46:11 62° SE 23:00:48 10° ENE
USA 32 4.1 22:44:17 10° N 22:49:33 83° W 22:53:23 19° S
Aureole 3 3.4 22:46:23 10° N 22:50:08 79° E 22:53:18 19° SSE
Cosmos 1816 Rocket 4.5 22:47:50 17° SSW 22:52:47 83° WNW 22:58:58 10° N
USA 267 3.4 22:47:28 10° SE 22:53:54 58° SW 23:00:22 10° WNW
Cosmos 1812 Rocket 3.6 22:52:08 10° NNW 22:56:28 69° W 22:59:21 21° S
Okean 1-7 Rocket 4.4 22:54:15 14° SW 22:57:56 47° WNW 23:02:13 10° N
Cosmos 2278 Rocket 4.1 22:55:34 10° WNW 22:58:59 17° W 23:02:25 10° SW
Cosmos 2221 4.4 22:55:58 10° N 22:59:32 25° ENE 23:03:04 10° ESE
BREEZE-M DEB (TANK) 3.3 22:57:21 10° WSW 23:01:10 64° S 23:13:06 10° E
Cosmos 2297 4.1 22:56:51 10° NW 23:02:17 50° WSW 23:06:11 19° S
Thor Agena Rocket 3.7 23:00:47 10° NNE 23:06:02 65° ESE 23:09:46 19° S
SAR-Lupe-2 3.5 23:03:42 10° NNE 23:07:19 85° WNW 23:09:33 22° SSW
NOSS 2-3 (C) 4.2 23:07:21 21° S 23:09:47 41° SE 23:14:27 10° NE
Resurs 1-4 Rocket 4.3 23:10:32 10° NE 23:13:33 15° E 23:16:33 10° ESE
SJ 16-02 2.0 23:10:46 10° NW 23:14:52 40° WSW 23:17:27 20° SSW
FALCON 9 DEB 3.0 23:12:27 10° W 23:15:50 63° SSW 23:19:12 10° ESE
Cosmos 1174 4.3 23:14:17 14° SSW 23:19:04 76° SE 23:23:30 10° NE
GP-B 3.4 23:18:33 10° N 23:22:57 61° W 23:26:01 19° SSW
Meteor 1-27 4.3 23:17:33 10° NNW 23:23:06 69° W 23:27:14 18° S
Meteor 1-11 4.3 23:19:57 17° SSW 23:24:21 74° WNW 23:29:58 10° N
Exosat Rocket 4.5 23:20:17 17° S 23:24:40 41° ESE 23:29:31 10° NE
Meteor 1-4 Rocket 4.4 23:22:16 10° NW 23:24:47 19° W 23:26:36 13° SW
Cosmos 1943 Rocket 2.7 23:20:05 10° NW 23:25:15 42° WSW 23:28:53 18° S
In-Cosmos 22 Rocket 4.3 23:23:39 18° S 23:27:46 65° E 23:33:10 10° NNE
Cosmos 1825 Rocket 3.6 23:25:14 20° S 23:28:16 77° E 23:32:44 10° NNE
Cosmos 1932 4.4 23:23:12 10° NW 23:29:27 77° SW 23:35:38 10° SE
Cosmos 1892 2.7 23:30:16 22° S 23:32:44 77° E 23:36:38 10° NNE
Cosmos 1437 Rocket 3.2 23:30:19 10° N 23:34:11 57° ENE 23:37:14 15° SSE
Cosmos 1869 3.5 23:31:24 10° NNW 23:35:29 65° W 23:38:08 21° S
CZ-2D R/B 3.9 23:31:47 10° NE 23:35:40 21° E 23:39:32 10° SE
Helios 1A 3.5 23:32:32 12° SE 23:36:17 55° ENE 23:40:25 10° N
ALOS 2 4.5 23:35:17 11° SW 23:38:02 19° W 23:41:11 10° NW
FALCON 9 DEB 2.7 23:35:48 10° W 23:38:57 82° S 23:42:06 10° E
Cosmos 990 Rocket 4.1 23:33:51 10° NNW 23:38:59 60° WSW 23:42:50 17° S
Lacrosse 4 Rocket 2.3 23:36:08 10° NNW 23:40:09 47° NE 23:44:05 10° ESE
EO 1 Del DPAF 3.3 23:36:33 10° NNE 23:40:16 64° ESE 23:42:38 21° S
Cosmos 1943 3.9 23:36:45 17° S 23:40:42 41° ESE 23:45:58 10° NE
SL-4 R/B 1.7 23:36:54 10° WSW 23:40:45 65° S 23:44:20 10° E
Aureole 3 Rocket 4.4 23:39:09 10° N 23:42:38 33° ENE 23:47:06 10° SE
USA 229 DEB 3.8 23:38:46 16° SSW 23:44:01 62° SE 23:50:51 10° NE
USA 229 3.8 23:38:53 16° SSW 23:44:07 62° SE 23:50:57 10° NE
NOSS 8 (F) 4.2 23:43:55 23° SSW 23:45:39 59° SE 23:48:35 10° NE
Lacrosse 5 rocket 2.0 23:46:42 10° WNW 23:50:12 49° N 23:53:44 10° E
Cosmos 1603 4.2 23:46:12 17° S 23:50:21 49° ESE 23:55:47 10° NE
ATLAS 3B R/B 4.3 23:45:05 10° WNW 23:51:16 37° NNW 23:57:44 10° NE
Cosmos 1242 Rocket 3.3 23:48:27 10° N 23:51:59 49° ENE 23:55:13 12° SSE
NOSS 3-1 (C) 3.4 23:46:44 11° SW 23:52:04 89° SE 23:58:45 10° NE
Cosmos 1953 Rocket 3.5 23:50:42 19° S 23:53:49 90° NNW 23:58:16 10° N
SL-16 R/B 3.2 23:47:54 10° SE 23:53:53 54° ENE 23:59:53 10° N
Cosmos 1937 Rocket 3.5 23:48:56 10° NNW 23:54:17 74° WSW 23:59:00 13° SSE
FALCON 9 DEB 2.7 23:51:18 10° W 23:54:23 70° SSW 23:57:27 10° ESE
Cosmos 1408 2.6 23:53:09 20° SSW 23:55:33 73° WNW 23:59:16 10° N
